Regional Weather Roundup
Issued by NWS Mt. Holly, NJ

Home | Current Version | Previous Version | Text Only | Print | Product List | Glossary On
Versions: 1 2 3 4 5 6 7 8 9 10 11 12 13 14 15 16 17 18 19 20 21 22 23 24 25 26 27 28 29 30 31 32 33 34 35 36 37 38 39 40 41 42 43 44 45 46 47 48 49 50
372
ASUS41 KPHI 270512
RWRPHI

REGIONAL WEATHER ROUNDUP
NATIONAL WEATHER SERVICE MOUNT HOLLY NJ
100 AM EDT MON MAR 27 2017

NOTE:  "FAIR" INDICATES FEW OR NO CLOUDS BELOW 12,000 FEET WITH NO
SIGNIFICANT WEATHER AND/OR OBSTRUCTIONS TO VISIBILITY.

 * = STATION DOES NOT REPORT PRECIPITATION (E.G. RAIN, SNOW, ETC.)
        OR FOG.

NJZ015>026-270600-
SOUTHERN NEW JERSEY

CITY           SKY/WX    TMP DP  RH WIND       PRES   REMARKS
POMONA         FOG       45  44  97 NE7       30.23F VSB 1/2
WILDWOOD*      FOG       44  44 100 NE8       30.22F VSB 3/4
MILLVILLE      CLOUDY    44  44 100 E8        30.21F FOG
WRIGHTSTOWN    CLOUDY    41  40  96 NE9       30.22F FOG
MOUNT HOLLY    CLOUDY    41  40  96 E6        30.24F FOG
TRENTON        CLOUDY    40  39  97 E9        30.25F FOG     WCI  34

$$
NJZ001>014-270600-
NORTHERN NEW JERSEY

CITY           SKY/WX    TMP DP  RH WIND       PRES   REMARKS
SUSSEX         LGT RAIN  37  36  96 N3        30.27F FOG
ANDOVER*         N/A     37  35  92 N3        30.26F
MORRISTOWN     CLOUDY    37  37 100 NE5       30.28F FOG     WCI  34
NEWARK         DRIZZLE   40  39  97 NE7       30.29F FOG
TETERBORO      CLOUDY    39  37  92 E8        30.29F FOG     WCI  33
CALDWELL       CLOUDY    38  36  92 E7        30.29F FOG     WCI  33
SOMERVILLE     CLOUDY    40  39  97 E5        30.26F FOG
ALLAIRE*       LGT RAIN  40  39  97 NE9       30.27F FOG     WCI  34
TOMS RIVER*    LGT RAIN  41  41 100 NE7       30.26F FOG

$$
PAZ043-044-047-054-055-060>062-066>071-270600-
EASTERN PENNSYLVANIA

CITY           SKY/WX    TMP DP  RH WIND       PRES   REMARKS
PHILADELPHIA   CLOUDY    42  40  92 NE7       30.24F FOG
NORTH PHILA    CLOUDY    42  40  92 NE8       30.26F FOG
BLUE BELL*     CLOUDY    37  37 100 E6        30.23F WCI  33
DOYLESTOWN     CLOUDY    38  38 100 VRB3      30.24F
QUAKERTOWN*    CLOUDY    39  39 100 E5        30.24F
PERKASIE*      CLOUDY    37  37 100 E6        30.24F FOG     WCI  33
POTTSTOWN      LGT RAIN  38  38 100 E7        30.24F FOG     WCI  33
LANCASTER      CLOUDY    41  41 100 E7        30.21F FOG
COATESVILLE    FOG       39  39 100 E12       30.21F VSB 1/4 WCI  32
READING        LGT RAIN  40  40 100 VRB7      30.22F
ALLENTOWN      CLOUDY    40  37  89 E9        30.24F FOG     WCI  34
MOUNT POCONO   FOG       32  32 100 E9        30.18F VSB 1/4 WCI  24
HAZLETON       FOG       36  34  93 SE14G21   30.18F VSB 1   WCI  27
LEHIGHTON      CLOUDY    37  37 100 NE3       30.24F FOG
WILKES BARRE   CLOUDY    39  35  86 E5        30.18F

$$
DEZALL-MDZ008-012-015-019-020-270600-
DELAWARE AND EASTERN MARYLAND

CITY           SKY/WX    TMP DP  RH WIND       PRES   REMARKS
WILMINGTON     CLOUDY    42  42 100 E9        30.23F FOG
DOVER          FOG       45 N/A N/A E7        30.20F VSB 1
GEORGETOWN     FOG       46  45  96 NE3       30.21F VSB 1/2
EASTON         FOG       46  45  95 E3        30.24F VSB 3/4
ABERDEEN       CLOUDY    43  42  99 E9        30.21F
PATUXENT       FOG       47  47 100 E6        30.19F VSB 1/4
OCEAN CITY     FOG       47  46  97 E3        30.20F VSB 1/4
WALLOPS ISLAND FOG       47  47 100 E6        30.20F VSB 1/4
CAMBRIDGE      FOG       46  46 100 E3        30.20F VSB 1/4
SALISBURY      FOG       48  48 100 E5        30.20S VSB 1/4

$$
PAZ001-021-NYZ056-072-MDZ011-DCZ001-270600-
OTHER NEARBY LOCATIONS

CITY           SKY/WX    TMP DP  RH WIND       PRES   REMARKS
HARRISBURG     LGT RAIN  42  42 100 SE10      30.20F FOG
STATE COLLEGE  DRIZZLE   40  39  94 CALM      30.12F
WILLIAMSPORT   LGT RAIN  41  38  89 E6        30.18F
BINGHAMTON     CLOUDY    34  33  96 S13G22    30.12F FOG     WCI  25
NEW YORK CITY  CLOUDY    38  37  97 NE10      30.31F FOG     WCI  31
BALTIMORE      FOG       44  44 100 E8        30.19F VSB 3/4
WASHINGTON DC  DRIZZLE   47  46  97 E7        30.19F FOG

$$




USA.gov is the U.S. government's official web portal to all federal, state and local government web resources and services.